Time,TemperatureF,DewpointF,PressureIn,WindDirection,WindDirectionDegrees,WindSpeedMPH,WindSpeedGustMPH,Humidity,HourlyPrecipIn,Conditions,Clouds,dailyrainin,SoftwareType,DateUTC
2013-01-17 00:02:00,24.0,21.0,-100.00,ENE,70,0.0,1.0,88,-99.99,,,-99.99,,2013-01-17 06:02:00,
2013-01-17 00:12:00,24.0,21.0,-100.00,ESE,115,0.0,1.0,87,-99.99,,,-99.99,,2013-01-17 06:12:00,
2013-01-17 00:22:00,24.0,21.0,-100.00,ESE,115,0.0,1.0,87,-99.99,,,-99.99,,2013-01-17 06:22:00,
2013-01-17 00:32:00,23.0,20.0,-100.00,ESE,120,0.0,1.0,90,-99.99,,,-99.99,,2013-01-17 06:32:00,
2013-01-17 00:42:00,23.0,20.0,-100.00,East,100,0.0,1.0,89,-99.99,,,-99.99,,2013-01-17 06:42:00,
2013-01-17 00:52:00,23.0,20.0,-100.00,East,100,0.0,1.0,89,-99.99,,,-99.99,,2013-01-17 06:52:00,
2013-01-17 01:02:00,22.0,20.0,-100.00,South,185,0.0,1.0,89,-99.99,,,-99.99,,2013-01-17 07:02:00,
2013-01-17 01:12:00,22.0,20.0,-100.00,ESE,120,0.0,0.0,90,-99.99,,,-99.99,,2013-01-17 07:12:00,
2013-01-17 01:22:00,22.0,20.0,-100.00,ESE,120,0.0,0.0,90,-99.99,,,-99.99,,2013-01-17 07:22:00,
2013-01-17 01:32:00,22.0,20.0,-100.00,NE,40,0.0,0.0,90,-99.99,,,-99.99,,2013-01-17 07:32:00,
2013-01-17 01:42:00,22.0,20.0,-100.00,NE,50,0.0,0.0,90,-99.99,,,-99.99,,2013-01-17 07:42:00,
2013-01-17 01:52:00,22.0,20.0,-100.00,NE,50,0.0,0.0,90,-99.99,,,-99.99,,2013-01-17 07:52:00,
2013-01-17 02:02:00,22.0,20.0,-100.00,ESE,120,0.0,1.0,91,-99.99,,,-99.99,,2013-01-17 08:02:00,
2013-01-17 02:12:00,22.0,20.0,-100.00,SE,135,0.0,1.0,90,-99.99,,,-99.99,,2013-01-17 08:12:00,
2013-01-17 02:22:00,22.0,20.0,-100.00,SE,135,0.0,1.0,90,-99.99,,,-99.99,,2013-01-17 08:22:00,
2013-01-17 02:32:00,21.0,19.0,-100.00,SSE,165,0.0,1.0,90,-99.99,,,-99.99,,2013-01-17 08:32:00,
2013-01-17 02:43:00,21.0,19.0,-100.00,East,90,0.0,0.0,91,-99.99,,,-99.99,,2013-01-17 08:43:00,
2013-01-17 02:52:00,21.0,19.0,-100.00,East,90,0.0,0.0,91,-99.99,,,-99.99,,2013-01-17 08:52:00,
2013-01-17 03:02:00,21.0,19.0,-100.00,NW,315,0.0,1.0,90,-99.99,,,-99.99,,2013-01-17 09:02:00,
2013-01-17 03:12:00,21.0,19.0,-100.00,ESE,110,0.0,0.0,91,-99.99,,,-99.99,,2013-01-17 09:12:00,
2013-01-17 03:22:00,21.0,19.0,-100.00,ESE,110,0.0,0.0,91,-99.99,,,-99.99,,2013-01-17 09:22:00,
2013-01-17 03:32:00,21.0,19.0,-100.00,SE,145,0.0,1.0,90,-99.99,,,-99.99,,2013-01-17 09:32:00,
2013-01-17 03:42:00,21.0,19.0,-100.00,ESE,120,0.0,0.0,91,-99.99,,,-99.99,,2013-01-17 09:42:00,
2013-01-17 03:52:00,21.0,19.0,-100.00,ESE,120,0.0,0.0,91,-99.99,,,-99.99,,2013-01-17 09:52:00,
2013-01-17 04:02:00,20.0,18.0,-100.00,West,275,0.0,1.0,91,-99.99,,,-99.99,,2013-01-17 10:02:00,
2013-01-17 04:12:00,20.0,18.0,-100.00,NE,45,0.0,1.0,91,-99.99,,,-99.99,,2013-01-17 10:12:00,
2013-01-17 04:22:00,20.0,18.0,-100.00,NE,45,0.0,1.0,91,-99.99,,,-99.99,,2013-01-17 10:22:00,
2013-01-17 04:32:00,21.0,19.0,-100.00,East,80,0.0,0.0,91,-99.99,,,-99.99,,2013-01-17 10:32:00,
2013-01-17 04:42:00,21.0,18.0,-100.00,NNE,20,0.0,1.0,89,-99.99,,,-99.99,,2013-01-17 10:42:00,
2013-01-17 04:52:00,21.0,18.0,-100.00,NNE,20,0.0,1.0,89,-99.99,,,-99.99,,2013-01-17 10:52:00,
2013-01-17 05:02:00,20.0,18.0,-100.00,ESE,105,0.0,1.0,91,-99.99,,,-99.99,,2013-01-17 11:02:00,
2013-01-17 05:12:00,21.0,18.0,-100.00,NE,40,0.0,1.0,90,-99.99,,,-99.99,,2013-01-17 11:12:00,
2013-01-17 05:22:00,21.0,18.0,-100.00,NE,40,0.0,1.0,90,-99.99,,,-99.99,,2013-01-17 11:22:00,
2013-01-17 05:33:00,20.0,19.0,-100.00,NNE,25,0.0,1.0,92,-99.99,,,-99.99,,2013-01-17 11:33:00,
2013-01-17 05:42:00,20.0,18.0,-100.00,South,190,0.0,0.0,90,-99.99,,,-99.99,,2013-01-17 11:42:00,
2013-01-17 05:52:00,20.0,18.0,-100.00,South,190,0.0,0.0,90,-99.99,,,-99.99,,2013-01-17 11:52:00,
2013-01-17 06:00:00,20.0,17.0,-100.00,ESE,120,0.0,1.0,90,-99.99,,,-99.99,,2013-01-17 12:00:00,
2013-01-17 06:02:00,20.0,17.0,-100.00,SE,135,0.0,1.0,90,-99.99,,,-99.99,,2013-01-17 12:02:00,
2013-01-17 06:12:00,19.0,17.0,-100.00,SSE,150,0.0,0.0,90,-99.99,,,-99.99,,2013-01-17 12:12:00,
2013-01-17 06:23:00,19.0,17.0,-100.00,SSE,150,0.0,0.0,90,-99.99,,,-99.99,,2013-01-17 12:23:00,
2013-01-17 06:33:00,19.0,17.0,-100.00,SE,130,0.0,1.0,90,-99.99,,,-99.99,,2013-01-17 12:33:00,
2013-01-17 06:43:00,20.0,17.0,-100.00,ESE,120,0.0,1.0,90,-99.99,,,-99.99,,2013-01-17 12:43:00,
2013-01-17 06:52:00,20.0,17.0,-100.00,ESE,120,0.0,1.0,90,-99.99,,,-99.99,,2013-01-17 12:52:00,
2013-01-17 07:12:00,23.0,21.0,-100.00,NW,305,0.0,1.0,91,-99.99,,,-99.99,,2013-01-17 13:12:00,
2013-01-17 07:23:00,23.0,21.0,-100.00,NW,305,0.0,1.0,91,-99.99,,,-99.99,,2013-01-17 13:23:00,
2013-01-17 07:33:00,31.0,28.0,-100.00,NNW,330,1.0,2.0,88,-99.99,,,-99.99,,2013-01-17 13:33:00,
2013-01-17 07:43:00,31.0,27.0,-100.00,NW,320,1.0,2.0,88,-99.99,,,-99.99,,2013-01-17 13:43:00,
2013-01-17 07:52:00,31.0,27.0,-100.00,NW,320,1.0,2.0,88,-99.99,,,-99.99,,2013-01-17 13:52:00,
2013-01-17 08:03:00,30.0,27.0,-100.00,NW,320,1.0,2.0,89,-99.99,,,-99.99,,2013-01-17 14:03:00,
2013-01-17 08:12:00,30.0,27.0,-100.00,North,0,1.0,1.0,89,-99.99,,,-99.99,,2013-01-17 14:12:00,
2013-01-17 08:23:00,30.0,27.0,-100.00,North,0,1.0,1.0,89,-99.99,,,-99.99,,2013-01-17 14:23:00,
2013-01-17 08:33:00,30.0,27.0,-100.00,NW,320,1.0,1.0,90,-99.99,,,-99.99,,2013-01-17 14:33:00,
2013-01-17 08:43:00,30.0,28.0,-100.00,NNW,330,1.0,2.0,90,-99.99,,,-99.99,,2013-01-17 14:43:00,
2013-01-17 08:53:00,30.0,28.0,-100.00,NNW,330,1.0,2.0,90,-99.99,,,-99.99,,2013-01-17 14:53:00,
2013-01-17 09:03:00,31.0,28.0,-100.00,NW,325,1.0,1.0,90,-99.99,,,-99.99,,2013-01-17 15:03:00,
2013-01-17 09:12:00,31.0,29.0,-100.00,NW,320,1.0,2.0,90,-99.99,,,-99.99,,2013-01-17 15:12:00,
2013-01-17 09:23:00,31.0,29.0,-100.00,NW,320,1.0,2.0,90,-99.99,,,-99.99,,2013-01-17 15:23:00,
2013-01-17 09:33:00,32.0,29.0,-100.00,NW,325,2.0,2.0,89,-99.99,,,-99.99,,2013-01-17 15:33:00,
2013-01-17 09:43:00,32.0,29.0,-100.00,NW,320,2.0,2.0,89,-99.99,,,-99.99,,2013-01-17 15:43:00,
2013-01-17 09:53:00,32.0,29.0,-100.00,NW,320,2.0,2.0,89,-99.99,,,-99.99,,2013-01-17 15:53:00,
2013-01-17 10:02:00,31.0,29.0,-100.00,NW,325,2.0,3.0,90,-99.99,,,-99.99,,2013-01-17 16:02:00,
2013-01-17 10:12:00,31.0,29.0,-100.00,NW,320,2.0,3.0,91,-99.99,,,-99.99,,2013-01-17 16:12:00,
2013-01-17 10:23:00,31.0,29.0,-100.00,NW,320,2.0,3.0,91,-99.99,,,-99.99,,2013-01-17 16:23:00,
2013-01-17 10:33:00,31.0,29.0,-100.00,NW,315,2.0,2.0,91,-99.99,,,-99.99,,2013-01-17 16:33:00,
2013-01-17 10:43:00,31.0,29.0,-100.00,NW,315,2.0,3.0,91,-99.99,,,-99.99,,2013-01-17 16:43:00,
2013-01-17 10:53:00,31.0,29.0,-100.00,NW,315,2.0,3.0,91,-99.99,,,-99.99,,2013-01-17 16:53:00,
2013-01-17 11:00:00,33.0,29.0,-100.00,NW,325,1.0,2.0,86,-99.99,,,-99.99,,2013-01-17 17:00:00,
2013-01-17 11:03:00,32.0,29.0,-100.00,NW,320,1.0,2.0,89,-99.99,,,-99.99,,2013-01-17 17:03:00,
2013-01-17 11:13:00,32.0,29.0,-100.00,NW,325,2.0,2.0,88,-99.99,,,-99.99,,2013-01-17 17:13:00,
2013-01-17 11:23:00,32.0,29.0,-100.00,NW,325,2.0,2.0,88,-99.99,,,-99.99,,2013-01-17 17:23:00,
2013-01-17 11:33:00,33.0,29.0,-100.00,NW,320,1.0,2.0,86,-99.99,,,-99.99,,2013-01-17 17:33:00,
2013-01-17 11:43:00,33.0,29.0,-100.00,NW,325,1.0,2.0,86,-99.99,,,-99.99,,2013-01-17 17:43:00,
2013-01-17 11:53:00,33.0,29.0,-100.00,NW,325,1.0,2.0,86,-99.99,,,-99.99,,2013-01-17 17:53:00,
2013-01-17 12:12:00,34.0,28.0,-100.00,NNW,330,2.0,3.0,77,-99.99,,,-99.99,,2013-01-17 18:12:00,
2013-01-17 12:22:00,34.0,28.0,-100.00,NNW,330,2.0,3.0,77,-99.99,,,-99.99,,2013-01-17 18:22:00,
2013-01-17 12:33:00,36.0,28.0,-100.00,North,0,1.0,2.0,72,-99.99,,,-99.99,,2013-01-17 18:33:00,
2013-01-17 12:43:00,37.0,28.0,-100.00,NNW,330,2.0,3.0,70,-99.99,,,-99.99,,2013-01-17 18:43:00,
2013-01-17 12:53:00,37.0,28.0,-100.00,NNW,330,2.0,3.0,70,-99.99,,,-99.99,,2013-01-17 18:53:00,
2013-01-17 13:03:00,39.0,29.0,-100.00,WNW,295,2.0,3.0,67,-99.99,,,-99.99,,2013-01-17 19:03:00,
2013-01-17 13:12:00,39.0,28.0,-100.00,NW,325,2.0,2.0,65,-99.99,,,-99.99,,2013-01-17 19:12:00,
2013-01-17 13:23:00,39.0,28.0,-100.00,NW,325,2.0,2.0,65,-99.99,,,-99.99,,2013-01-17 19:23:00,
2013-01-17 13:33:00,40.0,28.0,-100.00,WNW,295,1.0,2.0,61,-99.99,,,-99.99,,2013-01-17 19:33:00,
2013-01-17 13:43:00,40.0,28.0,-100.00,WNW,300,1.0,2.0,63,-99.99,,,-99.99,,2013-01-17 19:43:00,
2013-01-17 13:53:00,40.0,28.0,-100.00,WNW,300,1.0,2.0,63,-99.99,,,-99.99,,2013-01-17 19:53:00,
2013-01-17 14:03:00,40.0,27.0,-100.00,WNW,300,2.0,2.0,60,-99.99,,,-99.99,,2013-01-17 20:03:00,
2013-01-17 14:12:00,40.0,27.0,-100.00,NW,325,2.0,2.0,59,-99.99,,,-99.99,,2013-01-17 20:12:00,
2013-01-17 14:23:00,40.0,27.0,-100.00,NW,325,2.0,2.0,59,-99.99,,,-99.99,,2013-01-17 20:23:00,
2013-01-17 14:33:00,41.0,23.0,-100.00,NNW,330,1.0,3.0,48,-99.99,,,-99.99,,2013-01-17 20:33:00,
2013-01-17 14:43:00,42.0,24.0,-100.00,NNW,330,2.0,2.0,49,-99.99,,,-99.99,,2013-01-17 20:43:00,
2013-01-17 14:53:00,42.0,24.0,-100.00,NNW,330,2.0,2.0,49,-99.99,,,-99.99,,2013-01-17 20:53:00,
2013-01-17 15:03:00,42.0,25.0,-100.00,NW,305,1.0,3.0,51,-99.99,,,-99.99,,2013-01-17 21:03:00,
2013-01-17 15:13:00,42.0,25.0,-100.00,NW,305,2.0,2.0,49,-99.99,,,-99.99,,2013-01-17 21:13:00,
2013-01-17 15:23:00,42.0,25.0,-100.00,NW,305,2.0,2.0,49,-99.99,,,-99.99,,2013-01-17 21:23:00,
2013-01-17 15:33:00,42.0,24.0,-100.00,NNW,330,2.0,3.0,48,-99.99,,,-99.99,,2013-01-17 21:33:00,
2013-01-17 15:43:00,43.0,24.0,-100.00,North,350,2.0,3.0,48,-99.99,,,-99.99,,2013-01-17 21:43:00,
2013-01-17 15:52:00,43.0,24.0,-100.00,North,350,2.0,3.0,48,-99.99,,,-99.99,,2013-01-17 21:52:00,
2013-01-17 16:00:00,43.0,24.0,-100.00,NNW,330,2.0,2.0,48,-99.99,,,-99.99,,2013-01-17 22:00:00,
2013-01-17 16:03:00,43.0,24.0,-100.00,NW,320,1.0,2.0,48,-99.99,,,-99.99,,2013-01-17 22:03:00,
2013-01-17 16:12:00,43.0,24.0,-100.00,NNW,330,1.0,2.0,48,-99.99,,,-99.99,,2013-01-17 22:12:00,
2013-01-17 16:23:00,43.0,24.0,-100.00,NNW,330,1.0,2.0,48,-99.99,,,-99.99,,2013-01-17 22:23:00,
2013-01-17 16:33:00,43.0,25.0,-100.00,North,0,1.0,2.0,49,-99.99,,,-99.99,,2013-01-17 22:33:00,
2013-01-17 16:43:00,43.0,24.0,-100.00,NNW,330,2.0,2.0,48,-99.99,,,-99.99,,2013-01-17 22:43:00,
2013-01-17 16:52:00,43.0,24.0,-100.00,NNW,330,2.0,2.0,48,-99.99,,,-99.99,,2013-01-17 22:52:00,
2013-01-17 17:12:00,42.0,23.0,-100.00,NW,310,2.0,2.0,48,-99.99,,,-99.99,,2013-01-17 23:12:00,
2013-01-17 17:22:00,42.0,23.0,-100.00,NW,310,2.0,2.0,48,-99.99,,,-99.99,,2013-01-17 23:22:00,
2013-01-17 17:33:00,41.0,23.0,-100.00,NW,325,1.0,2.0,49,-99.99,,,-99.99,,2013-01-17 23:33:00,
2013-01-17 17:43:00,41.0,23.0,-100.00,NNW,340,1.0,2.0,49,-99.99,,,-99.99,,2013-01-17 23:43:00,
2013-01-17 17:53:00,41.0,23.0,-100.00,NNW,340,1.0,2.0,49,-99.99,,,-99.99,,2013-01-17 23:53:00,
2013-01-17 18:03:00,38.0,23.0,-100.00,NW,305,1.0,1.0,55,-99.99,,,-99.99,,2013-01-18 00:03:00,
2013-01-17 18:12:00,37.0,23.0,-100.00,NW,315,1.0,1.0,56,-99.99,,,-99.99,,2013-01-18 00:12:00,
2013-01-17 18:23:00,37.0,23.0,-100.00,NW,315,1.0,1.0,56,-99.99,,,-99.99,,2013-01-18 00:23:00,
2013-01-17 18:32:00,37.0,23.0,-100.00,NW,305,1.0,1.0,57,-99.99,,,-99.99,,2013-01-18 00:32:00,
2013-01-17 18:42:00,36.0,23.0,-100.00,NW,310,1.0,1.0,58,-99.99,,,-99.99,,2013-01-18 00:42:00,
2013-01-17 18:52:00,36.0,23.0,-100.00,NW,310,1.0,1.0,58,-99.99,,,-99.99,,2013-01-18 00:52:00,
2013-01-17 19:03:00,35.0,23.0,-100.00,NW,315,1.0,1.0,61,-99.99,,,-99.99,,2013-01-18 01:03:00,
2013-01-17 19:12:00,35.0,23.0,-100.00,NW,315,1.0,2.0,61,-99.99,,,-99.99,,2013-01-18 01:12:00,
2013-01-17 19:23:00,35.0,23.0,-100.00,NW,315,1.0,2.0,61,-99.99,,,-99.99,,2013-01-18 01:23:00,
2013-01-17 19:33:00,33.0,23.0,-100.00,NW,305,0.0,1.0,65,-99.99,,,-99.99,,2013-01-18 01:33:00,
2013-01-17 19:43:00,34.0,23.0,-100.00,ENE,60,0.0,1.0,64,-99.99,,,-99.99,,2013-01-18 01:43:00,
2013-01-17 19:52:00,34.0,23.0,-100.00,ENE,60,0.0,1.0,64,-99.99,,,-99.99,,2013-01-18 01:52:00,
2013-01-17 20:03:00,30.0,23.0,-100.00,WNW,285,0.0,1.0,74,-99.99,,,-99.99,,2013-01-18 02:03:00,
2013-01-17 20:12:00,29.0,23.0,-100.00,North,10,0.0,1.0,77,-99.99,,,-99.99,,2013-01-18 02:12:00,
2013-01-17 20:22:00,29.0,23.0,-100.00,North,10,0.0,1.0,77,-99.99,,,-99.99,,2013-01-18 02:22:00,
2013-01-17 20:33:00,30.0,23.0,-100.00,NNE,25,0.0,1.0,74,-99.99,,,-99.99,,2013-01-18 02:33:00,
2013-01-17 20:42:00,29.0,23.0,-100.00,North,0,0.0,1.0,76,-99.99,,,-99.99,,2013-01-18 02:42:00,
2013-01-17 20:52:00,29.0,23.0,-100.00,North,0,0.0,1.0,76,-99.99,,,-99.99,,2013-01-18 02:52:00,
2013-01-17 21:02:00,28.0,23.0,-100.00,NNE,25,0.0,1.0,79,-99.99,,,-99.99,,2013-01-18 03:02:00,
2013-01-17 21:12:00,28.0,23.0,-100.00,North,0,0.0,1.0,79,-99.99,,,-99.99,,2013-01-18 03:12:00,
2013-01-17 21:23:00,28.0,23.0,-100.00,North,0,0.0,1.0,79,-99.99,,,-99.99,,2013-01-18 03:23:00,
2013-01-17 21:33:00,26.0,22.0,-100.00,SE,140,0.0,1.0,82,-99.99,,,-99.99,,2013-01-18 03:33:00,
2013-01-17 21:42:00,26.0,22.0,-100.00,NNE,15,0.0,1.0,83,-99.99,,,-99.99,,2013-01-18 03:42:00,
2013-01-17 21:52:00,26.0,22.0,-100.00,NNE,15,0.0,1.0,83,-99.99,,,-99.99,,2013-01-18 03:52:00,
2013-01-17 22:02:00,26.0,22.0,-100.00,SSE,155,0.0,1.0,83,-99.99,,,-99.99,,2013-01-18 04:02:00,
2013-01-17 22:12:00,26.0,22.0,-100.00,SE,145,0.0,1.0,85,-99.99,,,-99.99,,2013-01-18 04:12:00,
2013-01-17 22:22:00,26.0,22.0,-100.00,SE,145,0.0,1.0,85,-99.99,,,-99.99,,2013-01-18 04:22:00,
2013-01-17 22:33:00,25.0,21.0,-100.00,NNE,20,0.0,1.0,84,-99.99,,,-99.99,,2013-01-18 04:33:00,
2013-01-17 22:42:00,25.0,21.0,-100.00,SSE,165,0.0,1.0,85,-99.99,,,-99.99,,2013-01-18 04:42:00,
2013-01-17 22:52:00,24.0,21.0,-100.00,East,90,0.0,1.0,86,-99.99,,,-99.99,,2013-01-18 04:52:00,
2013-01-17 23:03:00,24.0,21.0,-100.00,East,90,0.0,1.0,86,-99.99,,,-99.99,,2013-01-18 05:03:00,
2013-01-17 23:12:00,24.0,21.0,-100.00,ESE,120,0.0,1.0,87,-99.99,,,-99.99,,2013-01-18 05:12:00,
2013-01-17 23:22:00,24.0,21.0,-100.00,ESE,120,0.0,1.0,87,-99.99,,,-99.99,,2013-01-18 05:22:00,
2013-01-17 23:33:00,24.0,20.0,-100.00,SSE,155,0.0,1.0,87,-99.99,,,-99.99,,2013-01-18 05:33:00,
2013-01-17 23:42:00,23.0,20.0,-100.00,NNE,20,0.0,0.0,89,-99.99,,,-99.99,,2013-01-18 05:42:00,
2013-01-17 23:52:00,23.0,20.0,-100.00,NNE,20,0.0,0.0,89,-99.99,,,-99.99,,2013-01-18 05:52:00,